This is the latest recevied weather packets stored in our database for station/object W4OCD. If no packets are shown the sender has not sent any weather packets the latest 10 day(s).
| Time | Temp. | Humidity | Pressure | Rain* | Wind** | Luminosity | Snow |
|---|---|---|---|---|---|---|---|
| 1778132673 | 19.44° C | 99% | 1011.8 hPa | 1.27 mm | - | 0 W/m² | - |
| 1778132371 | 19.44° C | 99% | 1011.9 hPa | 1.27 mm | - | 0 W/m² | - |
| 1778132068 | 19.44° C | 99% | 1011.6 hPa | 0 mm | - | 0 W/m² | - |
| 1778131767 | 19.44° C | 99% | 1011.8 hPa | 0 mm | - | 0 W/m² | - |
| 1778131464 | 19.44° C | 99% | 1011.5 hPa | 0 mm | - | 0 W/m² | - |
| 1778131161 | 20° C | 99% | 1011.4 hPa | 0 mm | - | 0 W/m² | - |
| 1778130858 | 20° C | 99% | 1011.3 hPa | 1.78 mm | - | 0 W/m² | - |
| 1778130555 | 20° C | 99% | 1011.2 hPa | 4.83 mm | - | 0 W/m² | - |
| 1778130252 | 20° C | 99% | 1011.4 hPa | 4.83 mm | - | 0 W/m² | - |
| 1778129949 | 20° C | 99% | 1011.7 hPa | 6.1 mm | - | 0 W/m² | - |
| 1778129645 | 20° C | 99% | 1012 hPa | 6.1 mm | - | 0 W/m² | - |
| 1778129343 | 20° C | 99% | 1012.2 hPa | 6.1 mm | - | 0 W/m² | - |
| 1778129039 | 20° C | 99% | 1012 hPa | 8.89 mm | - | 0 W/m² | - |
| 1778128735 | 20° C | 99% | 1012.3 hPa | 7.87 mm | - | 0 W/m² | - |
| 1778128432 | 20° C | 99% | 1012.2 hPa | 1.78 mm | - | 0 W/m² | - |
| 1778128128 | 20° C | 99% | 1011.7 hPa | 1.78 mm | - | 0 W/m² | - |
| 1778127824 | 20° C | 99% | 1011.9 hPa | 3.05 mm | - | 0 W/m² | - |
| 1778127521 | 20° C | 99% | 1012.3 hPa | 3.05 mm | - | 0 W/m² | - |
| 1778127217 | 20° C | 99% | 1012.2 hPa | 3.05 mm | - | 0 W/m² | - |
| 1778126915 | 20° C | 99% | 1011.9 hPa | 3.05 mm | - | 0 W/m² | - |
| 1778126610 | 20° C | 99% | 1011.4 hPa | 1.78 mm | - | 0 W/m² | - |
| 1778126307 | 20° C | 99% | 1011.8 hPa | 1.78 mm | - | 0 W/m² | - |
| 1778125397 | 20° C | 99% | 1012.1 hPa | 3.05 mm | - | 0 W/m² | - |
| 1778107201 | 22.22° C | 99% | 1012.2 hPa | 0 mm | - | 46 W/m² | - |
| 1778104774 | 22.22° C | 98% | 1012 hPa | 11.94 mm | - | 30 W/m² | - |
* Rain latest hour (hover to see other rain measurements)
** Current wind speed in m/s (hover to see current wind gust speed)